Temp
-13 -13 -13 -13 -13 -12 -12 -12 -12 -12 -12 -12 -12 -12 -12 -13 -13 -13 -13 -13 -13 -13 -13 -13 -13 -13 -13 -13 -13 -13 -13 -13 -13 -13 -13 -13 -13 -13 -13 -12 -12 -12 -12 -12 -12 -12 -12 -11 -11 -11 -11 -11 -11 -11 -11 -11 -11 -11 -11 -11 -11 -11 -11
-12 -13 -13 -12 -12 -12 -12 -12 -12 -12 -12 -12 -12 -12 -12 -12 -13 -13 -13 -13 -13 -13 -13 -14 -14 -13 -13 -13 -13 -13 -13 -13 -13 -13 -13 -13 -13 -13 -13 -13 -12 -12 -12 -12 -12 -12 -12 -12 -11 -11 -11 -11 -11 -12 -11 -11 -11 -11 -11 -11 -11 -11 -11
-12 -12 -13 -12 -12 -12 -12 -12 -12 -12 -12 -12 -12 -12 -12 -12 -13 -13 -13 -13 -13 -13 -13 -14 -14 -13 -13 -13 -13 -13 -13 -13 -13 -13 -13 -13 -13 -13 -13 -13 -13 -12 -12 -12 -12 -12 -12 -12 -12 -12 -11 -11 -12 -12 -12 -12 -12 -11 -11 -11 -11 -11 -11
-12 -12 -12 -12 -12 -12 -12 -12 -12 -12 -12 -12 -12 -12 -12 -12 -12 -12 -12 -13 -13 -13 -13 -13 -14 -13 -13 -13 -13 -13 -13 -13 -13 -13 -13 -13 -13 -13 -13 -13 -13 -13 -13 -12 -12 -12 -12 -12 -12 -12 -12 -12 -12 -12 -12 -12 -12 -12 -12 -12 -12 -12 -11
-12 -12 -12 -12 -12 -12 -12 -12 -12 -12 -12 -12 -12 -12 -12 -12 -12 -12 -12 -13 -13 -13 -13 -14 -14 -13 -13 -13 -13 -13 -13 -13 -13 -13 -13 -13 -13 -13 -13 -13 -13 -13 -13 -13 -13 -12 -12 -12 -12 -12 -12 -12 -12 -12 -12 -12 -12 -12 -12 -12 -12 -12 -12
-12 -12 -12 -12 -12 -12 -12 -12 -12 -12 -11 -12 -12 -12 -12 -12 -12 -12 -13 -13 -14 -14 -14 -14 -14 -13 -13 -13 -13 -13 -13 -13 -13 -13 -14 -13 -13 -13 -13 -13 -13 -13 -13 -13 -13 -13 -12 -12 -12 -12 -12 -12 -12 -12 -12 -12 -12 -12 -12 -12 -12 -12 -12
-13 -12 -12 -12 -12 -12 -12 -12 -12 -11 -11 -12 -12 -12 -12 -12 -12 -12 -13 -13 -14 -14 -14 -14 -14 -13 -13 -12 -13 -13 -13 -13 -13 -13 -14 -13 -13 -13 -13 -13 -13 -13 -13 -13 -13 -13 -13 -13 -13 -12 -12 -12 -12 -12 -12 -12 -12 -12 -13 -12 -12 -12 -12
-14 -13 -12 -12 -12 -12 -12 -12 -12 -11 -11 -11 -11 -11 -12 -12 -12 -12 -13 -13 -13 -13 -14 -14 -14 -14 -13 -12 -12 -13 -13 -13 -13 -13 -13 -13 -13 -13 -13 -13 -13 -13 -13 -13 -13 -13 -13 -13 -13 -13 -12 -12 -12 -12 -12 -12 -12 -13 -13 -13 -13 -13 -13
-14 -13 -13 -13 -12 -12 -12 -12 -12 -11 -11 -11 -12 -12 -12 -12 -12 -12 -12 -13 -13 -13 -13 -14 -14 -14 -13 -13 -13 -13 -13 -13 -14 -13 -13 -13 -13 -13 -13 -13 -13 -13 -13 -13 -13 -13 -13 -13 -13 -13 -13 -12 -12 -12 -12 -12 -12 -13 -13 -13 -13 -13 -13
-14 -14 -13 -13 -13 -12 -12 -12 -12 -11 -11 -12 -12 -12 -12 -12 -12 -12 -12 -12 -12 -12 -13 -14 -14 -14 -13 -13 -13 -13 -13 -13 -14 -14 -14 -14 -13 -13 -13 -13 -13 -13 -13 -13 -13 -13 -13 -13 -13 -13 -13 -13 -13 -12 -12 -12 -12 -13 -13 -13 -13 -13 -13
-14 -13 -14 -14 -13 -13 -12 -12 -12 -12 -12 -12 -12 -12 -13 -13 -12 -12 -12 -12 -12 -12 -13 -14 -14 -13 -13 -13 -13 -13 -13 -13 -14 -14 -14 -14 -14 -13 -13 -13 -13 -13 -13 -13 -13 -13 -13 -13 -13 -13 -13 -13 -13 -13 -13 -13 -13 -13 -13 -13 -13 -13 -13
-15 -14 -14 -14 -14 -13 -12 -12 -12 -12 -12 -12 -12 -12 -12 -12 -12 -12 -12 -12 -12 -12 -13 -13 -13 -13 -13 -13 -13 -13 -13 -13 -13 -14 -14 -14 -14 -14 -14 -14 -13 -13 -13 -13 -13 -13 -13 -13 -13 -13 -13 -13 -13 -13 -13 -13 -13 -13 -13 -13 -13 -13 -13
-16 -16 -14 -14 -14 -13 -12 -12 -12 -12 -12 -12 -12 -12 -12 -12 -12 -12 -12 -12 -12 -12 -12 -13 -13 -13 -12 -13 -13 -13 -13 -13 -13 -13 -14 -14 -14 -14 -14 -14 -13 -13 -13 -13 -13 -13 -13 -13 -13 -13 -13 -13 -13 -13 -13 -13 -13 -13 -13 -13 -13 -13 -13
-17 -17 -15 -14 -13 -13 -13 -12 -12 -12 -12 -12 -13 -12 -12 -12 -12 -12 -12 -13 -12 -12 -12 -12 -13 -13 -12 -13 -13 -13 -13 -13 -13 -13 -14 -14 -14 -14 -14 -14 -14 -13 -13 -13 -13 -13 -13 -13 -13 -13 -13 -13 -13 -13 -13 -13 -13 -13 -13 -13 -13 -13 -13
-16 -17 -16 -14 -13 -13 -13 -13 -12 -12 -12 -13 -13 -12 -12 -12 -12 -12 -12 -13 -13 -12 -11 -12 -13 -13 -12 -13 -13 -13 -13 -13 -13 -14 -14 -14 -14 -14 -14 -14 -14 -13 -13 -13 -13 -13 -13 -13 -13 -13 -13 -13 -13 -13 -14 -14 -14 -13 -13 -13 -13 -13 -13
-17 -17 -16 -15 -13 -13 -13 -13 -13 -13 -13 -13 -13 -13 -12 -12 -12 -12 -12 -12 -13 -13 -12 -12 -13 -13 -13 -13 -13 -13 -12 -13 -13 -14 -14 -14 -14 -14 -14 -14 -14 -13 -14 -13 -13 -13 -13 -13 -13 -13 -13 -13 -13 -13 -14 -14 -14 -14 -13 -13 -13 -13 -13
-17 -17 -17 -16 -14 -13 -14 -13 -13 -13 -13 -13 -13 -13 -12 -12 -12 -12 -12 -12 -13 -13 -12 -12 -12 -13 -13 -13 -13 -13 -13 -13 -13 -13 -14 -14 -14 -14 -14 -14 -14 -14 -14 -14 -13 -13 -13 -13 -13 -13 -13 -13 -13 -13 -13 -14 -14 -14 -14 -13 -13 -13 -13
-17 -17 -17 -16 -15 -14 -14 -14 -14 -14 -13 -13 -13 -13 -13 -12 -12 -12 -12 -12 -12 -12 -12 -12 -12 -12 -13 -13 -12 -12 -13 -13 -13 -13 -14 -14 -14 -14 -14 -14 -14 -14 -13 -13 -13 -14 -14 -14 -13 -13 -13 -13 -13 -13 -13 -14 -14 -14 -14 -14 -13 -13 -13
-18 -17 -17 -17 -16 -15 -15 -14 -14 -14 -14 -13 -13 -13 -13 -13 -12 -12 -12 -12 -12 -12 -12 -13 -13 -13 -13 -13 -12 -12 -12 -12 -13 -13 -14 -14 -14 -14 -14 -14 -14 -13 -13 -13 -13 -14 -14 -14 -14 -13 -13 -13 -13 -13 -13 -13 -14 -14 -14 -14 -14 -13 -13
-18 -17 -17 -17 -16 -15 -15 -14 -14 -14 -14 -14 -13 -13 -13 -13 -12 -12 -12 -12 -12 -13 -12 -13 -13 -13 -13 -13 -12 -12 -12 -12 -13 -13 -14 -14 -14 -13 -14 -14 -13 -13 -13 -13 -13 -13 -14 -14 -14 -14 -14 -13 -13 -13 -13 -13 -13 -13 -14 -14 -14 -14 -14
-17 -17 -17 -17 -16 -16 -16 -15 -15 -14 -14 -14 -13 -13 -13 -13 -12 -12 -12 -12 -12 -12 -12 -12 -13 -14 -13 -13 -12 -12 -11 -11 -12 -13 -14 -14 -14 -13 -14 -13 -13 -13 -13 -13 -13 -13 -13 -14 -14 -14 -14 -14 -13 -13 -13 -13 -13 -13 -13 -13 -13 -13 -14
-17 -17 -17 -17 -17 -16 -16 -16 -15 -15 -14 -14 -13 -13 -13 -13 -13 -12 -12 -12 -12 -12 -12 -12 -12 -13 -13 -13 -13 -12 -11 -11 -12 -13 -13 -14 -14 -13 -13 -13 -13 -13 -13 -13 -13 -13 -13 -13 -14 -14 -13 -13 -13 -13 -13 -13 -13 -13 -13 -13 -13 -13 -13
-18 -17 -17 -17 -17 -16 -16 -16 -15 -15 -14 -14 -14 -13 -13 -13 -12 -12 -12 -12 -12 -12 -12 -12 -12 -13 -13 -13 -13 -13 -12 -12 -12 -13 -13 -14 -14 -13 -13 -13 -13 -13 -13 -13 -13 -13 -13 -13 -13 -13 -13 -13 -13 -14 -14 -14 -14 -14 -14 -13 -13 -13 -13
-18 -17 -17 -17 -17 -17 -16 -16 -16 -15 -15 -14 -14 -13 -13 -13 -12 -12 -12 -12 -13 -13 -13 -13 -13 -13 -13 -13 -13 -13 -12 -12 -12 -13 -13 -14 -14 -13 -13 -13 -13 -13 -13 -13 -13 -13 -13 -13 -13 -13 -13 -13 -13 -14 -14 -14 -14 -14 -14 -14 -14 -13 -13
-18 -18 -17 -17 -17 -17 -16 -16 -16 -15 -15 -14 -14 -14 -13 -12 -12 -12 -12 -12 -13 -13 -13 -13 -13 -13 -13 -13 -13 -13 -13 -12 -12 -13 -13 -14 -13 -13 -14 -14 -13 -13 -13 -13 -13 -13 -13 -13 -13 -13 -13 -13 -13 -13 -13 -14 -14 -14 -14 -14 -14 -14 -13
-18 -18 -18 -17 -17 -17 -17 -16 -16 -16 -15 -15 -14 -14 -13 -12 -12 -12 -12 -13 -13 -13 -13 -13 -13 -13 -13 -13 -13 -14 -14 -13 -12 -13 -13 -13 -13 -13 -14 -14 -13 -13 -14 -14 -13 -13 -13 -13 -13 -13 -13 -13 -13 -13 -13 -13 -14 -14 -14 -14 -14 -14 -14
-18 -18 -18 -18 -18 -17 -17 -16 -16 -16 -15 -15 -14 -14 -13 -12 -12 -12 -12 -13 -13 -13 -13 -13 -13 -13 -13 -13 -13 -14 -14 -13 -13 -13 -13 -13 -13 -13 -13 -14 -13 -13 -14 -13 -13 -13 -13 -13 -13 -13 -13 -13 -13 -13 -13 -13 -13 -14 -14 -14 -14 -14 -14
-18 -18 -18 -18 -18 -18 -17 -17 -16 -16 -15 -15 -14 -14 -13 -12 -12 -12 -12 -13 -13 -13 -13 -13 -13 -13 -13 -13 -13 -13 -13 -13 -13 -13 -14 -14 -13 -13 -13 -13 -13 -13 -13 -13 -13 -13 -13 -13 -13 -13 -13 -13 -13 -13 -13 -13 -13 -13 -13 -14 -14 -14 -14
-18 -18 -18 -18 -18 -18 -17 -17 -16 -16 -15 -15 -15 -14 -13 -12 -12 -13 -12 -13 -13 -13 -13 -13 -13 -13 -13 -13 -13 -13 -13 -12 -12 -13 -14 -14 -13 -13 -13 -13 -13 -13 -13 -13 -13 -13 -13 -13 -13 -12 -12 -13 -13 -13 -13 -13 -13 -13 -13 -13 -13 -13 -13
-18 -18 -18 -18 -17 -18 -17 -17 -17 -16 -16 -15 -15 -14 -13 -13 -13 -13 -13 -13 -13 -13 -13 -13 -13 -13 -13 -13 -13 -13 -13 -12 -12 -13 -14 -14 -13 -13 -13 -13 -13 -13 -13 -13 -13 -13 -13 -13 -12 -12 -12 -12 -12 -13 -13 -13 -13 -13 -13 -13 -13 -13 -13
-18 -18 -18 -18 -17 -18 -18 -18 -17 -17 -16 -16 -15 -15 -14 -13 -13 -13 -13 -13 -13 -13 -13 -13 -13 -13 -13 -13 -13 -13 -13 -13 -13 -13 -13 -14 -13 -13 -13 -13 -13 -13 -13 -13 -13 -13 -13 -13 -12 -12 -12 -12 -12 -12 -12 -13 -13 -13 -13 -13 -13 -13 -13
-18 -18 -18 -18 -18 -18 -18 -18 -18 -17 -17 -16 -16 -15 -14 -14 -14 -14 -14 -13 -13 -13 -13 -13 -13 -13 -13 -13 -13 -13 -13 -13 -13 -13 -13 -13 -13 -13 -13 -13 -13 -13 -13 -13 -13 -13 -13 -12 -12 -12 -12 -12 -12 -12 -12 -12 -13 -13 -13 -12 -12 -13 -13
-18 -18 -18 -18 -18 -18 -18 -17 -17 -17 -17 -16 -16 -15 -15 -14 -14 -14 -14 -14 -14 -13 -13 -13 -13 -13 -13 -13 -13 -13 -13 -13 -12 -13 -13 -13 -13 -13 -13 -13 -13 -13 -12 -13 -13 -13 -13 -13 -13 -13 -13 -12 -12 -12 -12 -12 -12 -13 -13 -12 -12 -12 -12
-18 -18 -18 -18 -18 -17 -17 -17 -17 -17 -17 -16 -16 -15 -15 -14 -14 -15 -15 -14 -14 -14 -13 -13 -13 -13 -13 -13 -13 -13 -13 -13 -12 -13 -13 -13 -13 -13 -13 -13 -13 -12 -13 -13 -13 -13 -13 -13 -13 -13 -13 -13 -12 -12 -12 -12 -12 -13 -12 -12 -12 -12 -12
-18 -18 -18 -18 -17 -17 -17 -17 -17 -17 -17 -17 -16 -16 -15 -15 -15 -15 -15 -15 -14 -14 -14 -14 -13 -13 -13 -13 -13 -13 -13 -13 -13 -13 -13 -13 -12 -12 -12 -12 -13 -13 -13 -13 -13 -13 -13 -13 -13 -13 -13 -13 -12 -12 -12 -12 -12 -12 -12 -12 -12 -12 -12
-18 -18 -18 -18 -18 -17 -17 -17 -17 -17 -17 -17 -16 -16 -15 -15 -15 -15 -15 -15 -14 -14 -14 -14 -14 -13 -13 -13 -13 -13 -13 -13 -13 -13 -13 -13 -12 -12 -13 -13 -13 -13 -13 -13 -13 -13 -13 -13 -13 -13 -13 -13 -12 -12 -12 -12 -12 -12 -12 -12 -12 -12 -12
-18 -18 -18 -18 -18 -18 -17 -17 -17 -17 -17 -17 -17 -16 -15 -15 -15 -15 -15 -15 -14 -14 -14 -14 -14 -13 -13 -13 -13 -13 -13 -13 -13 -13 -13 -13 -13 -13 -13 -13 -13 -13 -12 -13 -13 -13 -13 -13 -13 -13 -13 -13 -12 -12 -12 -12 -12 -12 -12 -12 -12 -12 -12
Height
5768 5770 5772 5776 5780 5783 5785 5787 5789 5792 5796 5798 5800 5803 5807 5810 5811 5812 5814 5818 5822 5824 5826 5829 5831 5833 5835 5836 5838 5839 5841 5841 5843 5845 5846 5846 5846 5846 5846 5847 5847 5848 5849 5849 5849 5847 5846 5846 5846 5846 5847 5847 5848 5848 5848 5847 5847 5847 5846 5846 5845 5844 5843
5763 5766 5768 5771 5776 5779 5781 5783 5785 5788 5792 5794 5796 5799 5803 5806 5808 5809 5811 5815 5819 5822 5824 5827 5828 5830 5832 5834 5836 5838 5839 5839 5841 5843 5844 5845 5845 5845 5845 5846 5846 5847 5848 5848 5848 5847 5846 5845 5845 5845 5845 5846 5847 5847 5847 5847 5846 5846 5845 5845 5844 5843 5843
5758 5761 5764 5767 5771 5775 5778 5780 5783 5785 5788 5791 5793 5796 5799 5802 5805 5806 5808 5812 5816 5819 5821 5823 5825 5827 5829 5832 5835 5836 5837 5838 5839 5841 5842 5844 5844 5845 5845 5845 5845 5846 5847 5847 5847 5846 5845 5845 5845 5845 5844 5845 5845 5846 5846 5846 5846 5845 5845 5844 5844 5843 5842
5753 5757 5759 5762 5766 5770 5774 5777 5780 5782 5784 5787 5790 5792 5795 5799 5802 5803 5805 5808 5812 5815 5818 5821 5822 5824 5827 5830 5832 5834 5836 5836 5837 5839 5840 5842 5843 5844 5844 5844 5844 5845 5845 5846 5846 5845 5845 5845 5844 5844 5844 5844 5844 5845 5845 5845 5845 5844 5844 5843 5843 5843 5842
5746 5751 5755 5757 5761 5765 5769 5773 5776 5778 5780 5784 5787 5789 5792 5796 5799 5800 5801 5803 5807 5811 5815 5818 5820 5821 5824 5827 5830 5832 5834 5835 5835 5837 5839 5840 5841 5842 5843 5843 5843 5843 5844 5844 5844 5844 5844 5844 5844 5844 5843 5843 5843 5843 5844 5844 5843 5843 5843 5843 5842 5842 5841
5739 5744 5749 5752 5755 5759 5763 5767 5771 5774 5776 5780 5783 5786 5788 5792 5795 5798 5798 5800 5804 5809 5813 5816 5817 5818 5821 5824 5827 5830 5832 5833 5834 5835 5837 5838 5840 5841 5841 5842 5842 5842 5842 5843 5843 5843 5843 5843 5843 5843 5843 5843 5843 5842 5842 5842 5842 5842 5842 5841 5841 5840 5840
5731 5737 5742 5745 5749 5752 5757 5761 5766 5769 5772 5776 5779 5782 5784 5788 5791 5794 5797 5798 5801 5805 5809 5812 5814 5815 5818 5821 5824 5827 5829 5830 5832 5833 5835 5837 5838 5839 5840 5840 5840 5841 5841 5842 5842 5842 5842 5842 5842 5842 5842 5842 5842 5842 5841 5841 5841 5841 5840 5840 5840 5839 5839
5723 5728 5734 5738 5741 5746 5750 5755 5760 5763 5766 5769 5772 5775 5778 5782 5785 5789 5793 5796 5798 5800 5804 5807 5809 5812 5815 5818 5820 5823 5825 5828 5829 5831 5832 5835 5836 5837 5838 5838 5839 5839 5840 5840 5841 5841 5841 5842 5841 5841 5842 5842 5841 5841 5841 5840 5840 5840 5839 5839 5839 5838 5838
5714 5719 5726 5730 5735 5739 5744 5749 5753 5756 5759 5762 5765 5769 5773 5776 5780 5783 5788 5792 5794 5796 5799 5803 5806 5808 5811 5814 5816 5819 5821 5824 5826 5828 5830 5832 5833 5834 5836 5837 5837 5838 5839 5839 5840 5840 5840 5841 5840 5840 5841 5841 5841 5840 5840 5839 5839 5839 5838 5838 5838 5837 5837
5705 5711 5718 5723 5727 5732 5737 5742 5746 5749 5753 5758 5763 5767 5770 5773 5776 5779 5783 5788 5791 5793 5795 5798 5802 5804 5807 5810 5812 5815 5817 5820 5822 5824 5826 5829 5830 5832 5833 5835 5835 5837 5838 5838 5838 5839 5839 5839 5839 5839 5839 5840 5840 5839 5839 5839 5838 5838 5837 5837 5837 5836 5836
5696 5701 5708 5714 5719 5724 5729 5735 5739 5743 5748 5753 5758 5763 5767 5770 5774 5776 5779 5784 5787 5789 5791 5794 5798 5801 5803 5806 5808 5811 5813 5815 5818 5821 5823 5825 5827 5829 5831 5832 5833 5835 5836 5837 5837 5837 5838 5838 5838 5838 5838 5838 5838 5838 5838 5838 5837 5837 5836 5836 5836 5835 5835
5688 5692 5697 5704 5711 5716 5723 5729 5733 5738 5743 5747 5752 5757 5762 5766 5770 5773 5776 5780 5783 5784 5786 5790 5794 5797 5799 5802 5804 5807 5809 5812 5815 5818 5819 5821 5824 5826 5828 5829 5831 5833 5834 5835 5835 5836 5836 5836 5837 5837 5837 5837 5837 5837 5837 5837 5837 5836 5835 5835 5835 5834 5834
5679 5684 5689 5695 5702 5709 5716 5722 5726 5732 5737 5742 5747 5752 5757 5761 5765 5769 5772 5774 5777 5778 5781 5786 5790 5793 5795 5798 5800 5803 5806 5809 5812 5815 5816 5817 5820 5823 5825 5826 5828 5830 5831 5833 5834 5834 5834 5835 5835 5835 5835 5835 5835 5835 5835 5835 5835 5835 5835 5834 5834 5833 5833
5673 5677 5682 5687 5695 5703 5710 5716 5721 5726 5731 5736 5742 5747 5752 5756 5760 5764 5767 5769 5771 5774 5777 5782 5786 5789 5792 5794 5796 5799 5802 5806 5809 5812 5813 5815 5817 5820 5822 5824 5825 5827 5829 5830 5831 5832 5832 5832 5832 5833 5833 5833 5833 5833 5833 5833 5833 5833 5833 5833 5833 5832 5832
5667 5671 5675 5680 5688 5696 5704 5710 5715 5720 5726 5731 5736 5742 5747 5751 5755 5760 5763 5766 5769 5771 5774 5778 5781 5784 5788 5790 5792 5795 5798 5802 5806 5809 5811 5812 5815 5817 5819 5821 5823 5824 5826 5827 5829 5829 5829 5829 5830 5830 5831 5831 5831 5831 5831 5831 5831 5831 5831 5832 5832 5831 5830
5663 5666 5669 5674 5681 5691 5699 5704 5709 5715 5721 5726 5731 5736 5741 5746 5751 5755 5758 5761 5765 5767 5771 5774 5776 5780 5784 5786 5788 5791 5795 5799 5802 5806 5808 5810 5812 5814 5816 5818 5820 5821 5823 5825 5826 5826 5826 5826 5827 5828 5828 5829 5829 5829 5829 5829 5829 5829 5829 5830 5830 5830 5829
5657 5661 5666 5671 5677 5685 5692 5697 5703 5710 5715 5720 5726 5731 5736 5741 5746 5750 5753 5756 5760 5763 5768 5770 5772 5776 5779 5782 5784 5787 5791 5794 5798 5802 5805 5807 5809 5811 5814 5816 5817 5818 5820 5822 5823 5823 5824 5824 5825 5825 5826 5827 5827 5827 5827 5827 5827 5827 5827 5827 5827 5828 5827
5652 5657 5663 5669 5675 5680 5685 5690 5697 5704 5709 5715 5721 5726 5731 5736 5741 5745 5748 5752 5756 5759 5763 5766 5769 5772 5775 5777 5780 5783 5786 5790 5794 5798 5801 5803 5805 5808 5810 5812 5813 5814 5817 5819 5820 5820 5821 5822 5822 5823 5824 5825 5825 5825 5825 5825 5825 5825 5825 5825 5825 5825 5825
5648 5654 5659 5666 5671 5676 5679 5683 5691 5698 5704 5710 5715 5720 5726 5731 5736 5740 5744 5747 5751 5754 5758 5761 5764 5767 5770 5773 5775 5778 5782 5786 5790 5794 5797 5799 5801 5804 5806 5808 5809 5811 5813 5815 5817 5817 5818 5819 5820 5821 5821 5822 5823 5823 5823 5823 5823 5822 5822 5822 5823 5823 5823
5645 5651 5656 5661 5667 5671 5674 5678 5684 5692 5698 5703 5709 5714 5720 5726 5730 5734 5738 5741 5745 5749 5752 5754 5757 5760 5764 5767 5771 5773 5777 5781 5785 5789 5793 5795 5797 5800 5802 5803 5805 5807 5809 5812 5813 5813 5814 5815 5817 5818 5819 5819 5820 5821 5821 5820 5820 5820 5820 5820 5820 5820 5820
5642 5647 5651 5656 5660 5665 5669 5673 5678 5685 5691 5697 5703 5709 5714 5719 5724 5728 5731 5734 5737 5741 5744 5747 5749 5753 5758 5762 5765 5768 5772 5776 5780 5784 5787 5790 5792 5795 5797 5799 5801 5803 5805 5807 5809 5810 5811 5812 5813 5815 5816 5816 5817 5818 5818 5818 5818 5817 5817 5817 5817 5818 5817
5637 5641 5646 5650 5655 5660 5665 5669 5673 5679 5685 5691 5697 5703 5708 5713 5717 5721 5723 5726 5728 5731 5734 5738 5741 5745 5750 5756 5759 5762 5766 5771 5775 5778 5781 5784 5786 5789 5792 5794 5797 5799 5801 5803 5804 5806 5807 5809 5810 5811 5812 5813 5814 5814 5815 5815 5815 5815 5815 5815 5815 5815 5815
5631 5636 5641 5646 5651 5656 5660 5664 5669 5673 5679 5686 5691 5697 5702 5706 5710 5713 5716 5720 5723 5726 5730 5733 5736 5739 5744 5748 5752 5755 5759 5765 5768 5771 5774 5777 5780 5784 5787 5790 5792 5795 5796 5798 5800 5802 5804 5805 5806 5807 5808 5809 5810 5811 5812 5812 5812 5812 5812 5813 5813 5813 5813
5626 5631 5637 5642 5648 5652 5656 5660 5664 5669 5674 5680 5685 5691 5695 5700 5704 5706 5710 5715 5720 5724 5729 5733 5737 5740 5743 5745 5746 5748 5753 5758 5762 5764 5767 5771 5774 5777 5781 5785 5787 5790 5791 5793 5795 5798 5800 5801 5802 5802 5803 5804 5805 5807 5808 5809 5809 5809 5809 5810 5810 5810 5811
5623 5627 5632 5638 5643 5648 5651 5655 5659 5664 5668 5674 5679 5685 5689 5694 5697 5700 5705 5710 5715 5720 5724 5729 5734 5738 5741 5743 5745 5747 5751 5755 5757 5759 5762 5765 5768 5771 5775 5779 5782 5784 5786 5788 5790 5793 5795 5796 5797 5798 5799 5800 5801 5803 5804 5805 5805 5805 5806 5806 5806 5807 5807
5619 5624 5628 5633 5638 5642 5646 5650 5655 5660 5664 5668 5673 5678 5683 5687 5690 5695 5700 5706 5711 5715 5719 5724 5729 5732 5736 5739 5743 5746 5750 5753 5755 5757 5759 5761 5763 5766 5770 5774 5777 5778 5780 5783 5785 5788 5790 5791 5792 5793 5794 5796 5797 5799 5800 5801 5802 5802 5802 5802 5802 5803 5803
5616 5620 5624 5628 5633 5637 5641 5646 5651 5655 5659 5663 5668 5673 5677 5680 5684 5689 5695 5701 5706 5710 5715 5720 5724 5727 5731 5735 5738 5741 5745 5749 5753 5755 5757 5759 5761 5763 5766 5769 5771 5773 5775 5778 5780 5782 5784 5785 5786 5787 5789 5791 5793 5795 5796 5797 5798 5799 5799 5799 5799 5799 5798
5613 5617 5620 5623 5627 5632 5637 5642 5647 5651 5655 5659 5664 5668 5671 5675 5679 5685 5691 5697 5701 5706 5711 5716 5720 5724 5727 5730 5733 5735 5738 5742 5747 5751 5754 5756 5758 5761 5763 5765 5767 5769 5771 5773 5775 5777 5778 5779 5780 5782 5784 5787 5789 5790 5791 5793 5794 5795 5795 5796 5795 5795 5794
5610 5613 5616 5619 5623 5628 5633 5639 5644 5648 5652 5655 5660 5663 5666 5670 5675 5681 5687 5692 5696 5701 5706 5711 5715 5719 5723 5726 5728 5729 5732 5735 5739 5744 5748 5752 5755 5757 5759 5761 5763 5765 5767 5769 5771 5772 5773 5773 5775 5777 5780 5783 5784 5786 5787 5788 5789 5790 5791 5791 5792 5792 5791
5606 5609 5612 5616 5620 5624 5628 5634 5639 5643 5647 5651 5655 5658 5662 5666 5672 5677 5683 5687 5692 5697 5702 5706 5711 5714 5717 5721 5722 5724 5727 5730 5733 5737 5742 5745 5749 5752 5755 5757 5759 5761 5763 5766 5767 5768 5768 5769 5771 5774 5776 5778 5779 5781 5783 5784 5785 5785 5786 5787 5787 5787 5787
5602 5605 5608 5612 5616 5619 5623 5627 5631 5636 5640 5644 5649 5653 5656 5660 5667 5673 5678 5683 5688 5693 5697 5702 5706 5709 5712 5715 5717 5720 5723 5726 5729 5732 5735 5739 5743 5747 5750 5753 5755 5757 5760 5762 5763 5763 5763 5765 5768 5771 5772 5773 5774 5776 5778 5780 5780 5780 5781 5782 5782 5783 5783
5598 5601 5604 5607 5610 5613 5616 5619 5622 5627 5632 5637 5642 5647 5650 5655 5662 5668 5674 5679 5684 5688 5693 5697 5701 5704 5707 5709 5711 5715 5718 5721 5724 5728 5731 5734 5738 5742 5745 5748 5751 5754 5757 5758 5759 5759 5760 5761 5764 5766 5767 5768 5769 5772 5774 5775 5774 5775 5776 5777 5777 5778 5778
5594 5597 5599 5601 5604 5606 5610 5614 5618 5622 5628 5633 5638 5643 5646 5651 5657 5663 5669 5674 5680 5684 5689 5693 5696 5699 5702 5704 5707 5710 5713 5716 5719 5724 5728 5731 5734 5737 5740 5743 5746 5750 5753 5754 5755 5756 5756 5757 5759 5761 5761 5761 5763 5767 5769 5769 5768 5769 5771 5771 5772 5773 5773
5591 5594 5596 5598 5601 5604 5608 5613 5617 5621 5625 5629 5633 5639 5643 5647 5653 5659 5664 5670 5675 5680 5685 5689 5691 5694 5697 5699 5702 5705 5708 5712 5716 5720 5723 5726 5729 5732 5734 5738 5742 5745 5748 5749 5750 5751 5751 5752 5753 5754 5755 5756 5759 5762 5762 5762 5763 5764 5765 5766 5767 5767 5768
5588 5591 5594 5596 5600 5604 5607 5611 5615 5619 5621 5624 5628 5634 5638 5642 5648 5653 5658 5664 5670 5675 5680 5683 5686 5689 5691 5694 5697 5700 5704 5708 5711 5714 5716 5720 5723 5727 5730 5734 5737 5740 5742 5743 5744 5745 5746 5747 5747 5747 5748 5751 5754 5755 5756 5757 5757 5758 5759 5761 5762 5762 5763
5586 5589 5591 5593 5596 5600 5603 5607 5611 5615 5618 5620 5624 5629 5633 5638 5643 5648 5652 5658 5664 5669 5674 5678 5681 5684 5686 5689 5692 5696 5699 5702 5705 5707 5709 5713 5718 5722 5726 5729 5732 5734 5736 5737 5739 5740 5741 5741 5740 5740 5742 5746 5748 5748 5749 5750 5750 5752 5754 5755 5756 5757 5759
5582 5584 5586 5588 5591 5595 5598 5602 5606 5610 5613 5617 5620 5624 5629 5633 5638 5642 5648 5653 5659 5664 5669 5673 5676 5679 5682 5684 5687 5691 5694 5697 5700 5702 5704 5708 5712 5717 5720 5723 5726 5727 5728 5730 5732 5733 5734 5735 5734 5735 5738 5740 5740 5740 5741 5742 5743 5745 5747 5748 5750 5752 5754
Wind_Speed
49 50 53 52 49 48 47 47 46 44 41 39 40 38 31 33 39 39 35 33 32 31 29 28 30 30 28 25 24 24 23 19 16 14 13 11 9 8 8 7 6 5 5 5 3 3 4 5 5 5 5 5 6 6 8 9 9 8 7 7 6 6 5
50 50 53 54 52 51 49 48 47 45 44 42 40 39 34 34 39 41 38 36 34 33 31 30 33 33 31 28 24 24 24 22 18 16 15 13 11 10 9 9 8 7 7 6 4 2 3 4 5 6 6 7 6 6 7 8 9 9 8 8 7 6 6
52 51 54 55 54 53 51 50 48 46 46 44 42 41 38 37 41 43 39 37 36 35 33 33 35 36 33 31 26 24 25 24 20 17 16 15 13 12 11 11 10 9 8 7 5 2 2 3 4 5 6 7 7 6 7 7 8 9 9 8 8 7 7
55 52 53 55 55 54 53 51 49 48 47 46 44 44 42 39 42 44 41 39 39 38 36 35 36 37 35 32 28 25 26 24 20 19 18 17 16 14 13 12 12 11 10 8 6 4 3 3 3 4 5 7 7 7 7 7 8 8 9 9 8 7 7
57 54 53 55 55 55 54 52 51 50 48 47 44 44 43 40 41 45 44 42 41 40 38 37 38 38 35 32 29 26 26 25 21 20 20 19 18 16 14 14 14 13 12 10 8 5 4 4 4 4 5 6 7 7 7 7 7 8 9 9 9 8 8
60 57 54 55 55 55 55 54 53 52 50 47 42 41 43 42 41 45 46 44 42 41 39 38 39 39 35 32 30 26 26 26 23 22 22 21 19 17 15 15 15 15 14 12 10 7 6 6 6 5 5 6 7 7 8 7 7 8 9 9 9 10 10
60 60 57 55 56 56 56 55 55 54 52 49 45 40 40 41 42 45 47 46 44 43 42 41 41 41 37 33 31 28 27 27 25 24 23 21 20 18 17 16 16 16 16 14 12 9 8 7 7 7 7 7 8 8 8 8 8 8 9 10 9 10 11
58 60 59 57 57 57 56 56 56 56 55 54 53 49 44 42 43 46 48 47 48 46 45 44 43 43 39 35 33 31 28 28 27 25 24 21 20 19 18 17 17 18 18 16 14 12 10 9 8 8 8 8 9 9 9 9 8 8 9 9 10 10 11
59 60 60 59 59 58 58 57 58 59 59 57 55 53 51 47 45 46 48 49 50 49 47 46 44 44 42 38 36 34 31 29 28 28 26 22 21 20 20 18 18 19 19 18 16 14 12 10 10 10 10 9 10 10 10 10 10 9 9 9 10 10 11
62 61 59 60 60 60 60 59 59 60 60 57 53 50 50 49 47 47 48 49 51 51 49 48 46 45 44 41 39 37 35 32 31 30 29 25 22 22 21 20 20 20 20 18 17 15 13 11 11 12 12 11 10 10 10 11 11 10 10 10 11 11 12
63 63 60 60 62 62 62 61 61 60 59 57 55 52 49 48 47 48 47 49 53 53 51 50 49 47 46 44 43 41 39 36 33 31 31 28 25 23 22 22 21 21 20 19 17 15 14 12 12 13 14 13 12 12 11 11 12 11 10 10 11 11 12
63 65 63 62 63 64 63 62 62 60 58 57 54 53 51 49 48 48 47 50 56 56 55 54 52 50 47 45 45 44 41 39 35 33 32 31 27 25 24 24 23 22 22 20 18 16 15 14 14 14 15 15 14 14 13 12 12 12 11 10 11 11 11
61 64 65 64 64 65 64 63 63 61 58 56 53 52 51 49 49 48 47 53 62 60 57 56 53 51 49 47 47 46 44 41 37 33 33 33 30 26 26 26 24 23 23 21 19 18 17 16 16 15 16 17 16 16 15 14 13 13 12 11 11 11 12
58 62 66 67 66 65 64 64 63 61 58 56 54 53 51 48 48 46 43 50 63 62 56 55 55 53 51 49 49 48 45 41 37 35 35 35 32 28 28 28 26 24 24 23 21 20 18 18 18 18 18 18 18 17 17 16 16 15 14 12 12 12 12
60 62 65 69 69 66 64 64 63 61 59 56 54 53 52 49 47 46 43 45 55 60 55 54 56 56 53 51 51 48 44 41 39 37 36 36 33 31 31 30 27 26 25 25 24 22 21 20 20 20 20 19 19 18 18 18 18 17 16 15 14 14 14
60 63 65 68 70 66 64 64 64 61 59 57 55 53 53 51 47 47 47 46 49 55 55 54 56 56 55 54 53 49 45 43 42 39 37 36 35 33 33 32 29 27 27 27 27 26 23 22 22 22 22 21 20 19 19 18 19 19 19 18 18 17 16
56 60 63 66 68 65 64 65 64 62 60 57 55 54 53 52 49 47 48 48 47 48 51 54 56 56 57 57 54 51 48 45 44 42 38 37 37 36 35 33 31 30 29 29 30 29 25 23 24 24 23 23 21 19 19 19 19 19 20 20 21 20 19
48 54 57 61 64 64 65 66 65 62 60 58 56 54 53 52 51 48 48 49 48 46 47 51 56 57 58 59 56 52 50 48 46 43 40 38 38 38 38 36 35 34 32 32 32 31 28 26 25 25 25 25 23 20 19 20 20 20 20 21 22 23 23
39 47 52 56 60 63 66 67 66 63 61 58 56 55 53 52 51 50 48 48 49 48 46 48 55 60 61 60 57 52 50 49 47 45 41 38 38 41 42 40 38 36 34 33 33 33 31 29 28 26 26 26 26 22 19 19 20 21 21 21 22 23 24
40 43 47 52 58 62 66 67 66 64 61 60 58 56 54 54 54 52 49 49 48 48 47 46 53 62 64 61 58 53 50 47 46 45 43 40 39 43 46 45 41 37 35 34 34 34 33 32 30 29 28 28 28 26 23 21 21 21 22 22 22 23 24
45 43 45 50 56 62 65 67 66 64 63 61 59 58 56 55 56 54 52 51 50 49 48 47 52 62 67 63 58 55 50 46 44 45 43 41 41 45 50 49 44 39 37 38 38 36 35 35 33 31 30 29 29 29 27 24 22 22 23 22 23 23 24
48 46 46 50 55 61 65 66 66 65 64 62 61 59 58 57 57 57 56 54 54 54 53 51 52 61 67 64 60 58 52 46 45 45 43 43 44 47 52 52 46 41 40 41 41 38 35 35 35 34 33 31 30 30 29 28 25 24 24 24 23 23 23
50 48 47 49 53 59 64 65 65 65 65 64 63 61 60 59 59 61 60 57 56 56 55 53 55 61 66 66 63 61 56 49 47 46 44 44 47 50 54 53 48 43 42 43 42 38 33 32 34 36 36 35 33 31 30 29 27 26 26 25 24 23 23
51 49 48 49 52 57 62 65 65 66 66 65 64 63 62 61 62 63 62 58 56 55 54 52 53 56 63 66 66 64 59 52 50 48 46 47 49 53 56 54 50 45 44 43 41 37 34 32 33 36 37 38 37 34 32 31 29 28 28 27 26 25 24
52 50 49 49 51 55 60 65 66 66 67 66 66 65 64 64 64 65 63 59 56 55 54 53 52 53 57 63 66 66 60 54 51 49 49 50 52 56 57 54 50 48 46 45 42 38 37 35 34 34 36 37 38 37 35 33 31 30 29 29 29 28 27
52 51 50 49 51 54 59 63 66 67 67 68 67 66 66 66 67 66 63 59 56 56 55 53 53 54 54 58 63 66 62 56 52 50 50 52 55 58 58 55 52 50 48 46 43 40 39 40 39 38 37 37 37 37 38 37 35 32 32 32 31 30 30
54 52 51 50 51 54 57 61 65 67 68 69 68 68 68 68 68 67 64 61 59 57 55 54 54 55 53 53 58 63 64 60 54 51 51 53 57 59 58 55 53 52 49 46 44 42 41 42 43 43 41 38 36 37 38 39 38 36 35 34 34 32 32
55 54 53 52 51 52 54 58 63 66 68 69 69 69 70 70 69 67 64 62 61 59 57 55 54 54 53 51 52 58 63 61 57 54 53 55 58 61 59 56 54 52 50 48 46 45 45 45 45 44 42 39 37 37 38 40 40 40 38 37 36 36 34
57 56 55 54 53 52 52 54 58 63 66 68 69 70 71 71 69 67 64 62 61 60 58 56 55 54 54 52 51 54 58 60 58 56 56 57 61 63 61 57 54 53 52 50 49 48 48 47 46 44 42 41 39 38 39 40 40 40 41 40 39 38 38
57 58 57 56 55 54 52 52 54 60 65 68 69 71 72 72 69 67 65 63 61 59 58 57 56 54 54 53 53 53 55 58 59 58 58 60 63 65 63 58 56 55 54 52 51 50 50 49 47 44 42 42 41 41 41 41 40 41 41 41 41 40 40
55 58 59 58 57 56 55 54 54 58 63 67 69 71 73 72 70 67 65 63 60 58 57 57 56 54 53 54 53 52 52 57 60 60 60 62 64 64 63 61 59 57 56 54 53 53 52 51 47 44 44 44 43 42 42 41 41 42 41 40 41 41 41
52 56 58 59 60 59 59 58 57 58 61 65 68 71 73 73 70 67 65 63 60 58 57 56 56 55 54 54 54 52 51 55 59 61 61 62 63 63 62 61 60 58 56 55 54 54 53 51 48 47 48 48 47 45 43 43 43 44 43 41 40 40 41
51 55 58 61 63 63 63 61 59 57 59 62 66 69 72 72 69 67 66 63 60 58 56 56 55 55 54 54 54 53 51 52 56 59 60 60 60 61 61 60 59 56 55 54 53 54 54 53 52 51 52 52 51 49 47 46 45 45 45 43 41 41 42
49 51 56 61 64 65 63 62 59 57 57 59 63 66 70 71 69 67 66 63 60 58 56 56 55 55 55 54 53 52 52 51 52 55 59 61 61 61 60 59 56 54 53 53 54 55 56 56 56 56 57 56 54 53 52 50 49 49 49 46 43 42 43
48 48 50 55 60 63 63 61 60 58 57 58 60 64 68 70 69 67 65 63 61 59 57 56 55 55 55 54 52 51 51 51 50 51 55 61 63 62 60 58 55 53 54 54 56 57 57 58 59 60 60 59 57 56 56 54 53 53 51 48 45 44 44
43 44 46 49 53 58 62 63 61 60 59 58 59 62 66 68 68 67 66 64 62 60 58 56 56 55 55 55 53 51 50 51 50 50 52 57 60 59 58 56 56 56 56 56 57 57 58 59 61 62 62 61 60 60 60 60 59 57 54 50 47 46 45
38 40 44 48 50 52 56 60 62 62 61 59 58 60 64 66 67 66 65 64 62 61 59 57 56 56 55 55 54 52 51 51 50 49 48 50 53 54 54 55 56 58 60 60 59 57 57 59 61 61 60 59 59 59 59 58 58 58 55 51 49 48 45
Wind_Direction
239 242 243 241 236 233 233 234 234 235 235 235 238 239 240 228 207 193 195 200 204 209 211 212 215 221 224 226 225 220 211 204 207 216 221 215 208 212 218 220 221 225 241 263 298 355 13 11 352 336 326 317 318 323 324 323 323 325 326 327 328 331 337
237 240 242 241 238 234 232 234 234 235 234 234 237 236 235 233 215 197 194 200 204 210 211 211 216 222 226 227 229 226 217 205 203 213 221 219 215 216 223 226 227 230 238 253 274 333 8 5 353 346 337 330 325 317 315 317 319 321 321 322 323 324 324
237 237 240 240 239 236 233 234 234 235 235 233 235 235 234 234 219 201 195 199 203 210 212 211 217 224 226 228 229 228 222 211 204 212 221 223 220 219 222 226 230 232 235 246 260 292 347 350 349 348 342 337 333 323 314 312 312 314 315 317 320 323 322
238 236 237 239 239 237 235 234 234 235 236 234 235 235 236 234 220 204 197 200 203 209 213 213 217 225 228 229 230 230 225 216 207 213 222 225 224 222 221 225 229 232 234 240 250 268 297 314 332 341 341 339 335 331 322 313 307 305 306 308 313 318 320
241 236 235 236 237 237 235 234 234 234 236 237 236 237 235 231 224 212 200 199 204 209 213 215 218 225 230 231 232 232 227 219 211 215 223 226 227 225 223 224 228 230 233 237 241 252 271 285 304 323 334 335 333 333 328 317 308 302 299 300 304 309 312
243 238 234 234 235 235 235 234 233 233 234 234 235 237 234 229 227 219 205 199 205 210 213 215 219 226 230 231 233 233 228 222 216 219 225 227 228 227 225 224 226 228 230 233 235 242 257 275 290 304 319 326 327 331 330 324 316 308 302 299 301 302 303
242 239 234 232 232 233 233 233 233 233 233 232 232 234 233 229 227 223 212 204 204 208 213 215 220 226 229 230 233 233 230 225 220 222 228 230 230 229 227 225 226 227 228 230 231 236 248 263 278 291 304 314 319 326 328 328 325 318 309 304 303 302 301
240 239 234 231 230 230 231 232 232 232 232 231 230 230 229 227 225 224 220 213 206 206 211 214 219 225 228 229 231 232 231 229 227 226 229 232 232 232 229 227 227 228 227 228 229 234 244 255 267 279 291 301 310 319 325 326 326 324 318 313 310 307 305
236 237 234 231 229 229 230 230 231 231 231 230 229 228 227 227 225 224 224 220 211 207 209 213 217 223 226 228 231 232 232 232 232 230 230 232 234 235 232 228 227 228 228 227 229 235 243 252 262 271 280 289 300 311 319 322 321 322 324 323 321 319 318
233 233 233 230 228 227 228 229 230 231 231 231 231 230 229 228 227 226 226 223 215 209 209 212 216 220 224 227 230 232 231 231 232 231 231 231 234 236 235 230 227 227 228 228 230 236 244 253 261 268 274 280 289 299 309 316 317 318 322 326 329 329 329
232 230 229 227 226 226 226 227 229 230 231 230 230 231 231 229 229 229 228 223 216 213 211 211 215 218 222 225 229 231 231 230 231 231 231 231 233 236 237 234 229 228 230 231 234 239 245 253 260 266 271 274 280 288 296 307 312 314 317 321 326 330 331
232 229 226 224 224 225 224 225 228 228 229 229 228 230 231 232 231 231 233 227 218 215 213 212 214 216 219 224 228 231 232 232 231 232 232 231 231 234 236 236 232 230 233 234 235 241 246 252 257 262 268 271 274 280 286 296 305 310 314 318 321 325 328
229 227 224 222 222 224 223 223 225 226 227 227 226 227 230 233 232 233 239 230 217 215 215 214 215 217 218 222 226 230 233 233 232 233 235 232 229 230 234 235 233 234 237 237 236 241 246 251 254 256 262 267 270 274 279 286 296 305 310 314 318 322 325
224 223 222 221 221 222 221 222 223 224 224 224 225 225 228 231 231 233 237 226 215 215 216 213 215 218 219 221 224 228 231 233 233 235 238 233 227 227 230 232 233 235 240 241 239 242 246 250 253 253 257 263 266 270 274 279 287 294 301 306 311 317 322
223 222 220 219 220 220 219 220 221 221 222 222 223 224 226 229 230 230 231 225 219 221 219 213 214 218 220 222 224 226 229 231 233 236 238 235 227 225 227 229 232 235 240 244 243 244 245 248 252 252 254 258 263 266 270 275 280 285 291 295 299 306 313
224 223 221 218 218 217 217 218 218 218 219 220 220 222 224 227 229 229 228 227 227 227 223 218 216 217 220 223 224 225 227 229 232 234 237 235 228 225 226 226 229 233 238 243 245 246 248 249 251 252 254 255 257 261 265 270 276 280 284 288 290 295 301
224 224 222 219 216 213 214 215 216 215 217 218 218 220 222 224 226 227 226 226 228 227 225 223 221 218 219 223 224 225 226 229 231 233 235 235 230 226 226 225 227 230 235 240 244 247 250 252 253 254 257 258 255 255 259 264 270 275 280 283 286 289 293
220 221 222 221 216 211 210 213 213 213 214 215 216 217 219 220 223 225 225 225 227 227 226 227 226 221 220 223 225 225 226 228 230 231 233 235 232 228 226 224 225 229 232 237 243 246 250 253 255 257 262 263 260 255 256 261 265 270 275 280 283 286 289
219 220 219 221 217 210 208 210 211 211 212 213 214 215 216 217 220 222 224 224 226 228 229 230 229 224 221 222 225 226 226 227 230 231 232 235 233 229 228 226 226 228 231 236 240 244 247 251 255 259 264 269 270 265 261 261 264 268 272 276 281 284 286
226 220 216 218 217 212 209 208 208 208 209 211 212 213 214 216 218 220 222 223 224 226 229 231 229 225 221 221 224 226 226 225 228 230 231 234 234 229 228 229 227 227 229 234 238 241 244 247 252 257 262 269 274 275 270 267 267 269 271 274 277 281 284
222 217 216 218 217 214 210 208 206 206 207 209 210 211 212 215 217 219 221 222 222 223 225 227 225 222 220 221 223 226 226 223 226 230 230 232 233 229 228 230 230 227 227 231 235 239 242 244 247 252 257 263 270 275 275 273 271 271 273 273 276 279 281
214 213 215 217 217 215 212 209 206 204 206 207 208 210 211 213 216 219 220 220 220 219 219 219 218 217 218 220 223 226 226 222 224 228 228 230 231 228 227 230 231 229 229 232 236 241 243 245 247 251 254 257 262 269 273 274 273 273 274 275 276 278 280
210 210 212 216 217 215 213 211 206 204 205 206 208 209 210 212 216 219 220 220 220 218 217 217 215 214 216 219 222 226 226 222 222 224 224 227 228 225 225 229 231 231 233 236 240 242 244 246 249 251 253 254 256 261 267 270 272 273 275 277 277 277 279
208 209 210 214 216 216 215 212 208 205 204 206 207 209 210 213 216 219 220 221 221 219 218 218 218 217 218 220 222 224 225 222 220 220 221 223 224 222 223 227 230 231 234 238 241 240 239 243 248 250 251 251 252 255 259 264 267 270 274 277 277 277 278
208 209 210 213 216 216 215 213 210 207 205 205 207 208 210 214 217 219 219 219 219 219 218 217 218 220 222 224 224 225 225 224 220 219 220 222 221 220 221 225 230 232 233 237 240 238 237 240 246 249 251 252 253 255 257 260 263 266 270 274 276 277 278
208 210 210 212 215 216 216 214 211 209 207 206 207 208 211 215 217 218 218 217 217 219 219 217 218 220 222 225 227 226 226 227 224 221 222 223 221 219 220 224 228 231 233 236 238 238 239 241 244 247 250 253 255 256 257 260 264 266 267 270 273 275 277
207 210 212 213 215 216 216 215 212 210 209 208 208 209 212 215 217 218 218 216 216 219 221 221 220 220 221 224 227 226 225 227 227 226 226 226 223 220 220 223 227 231 234 236 238 239 240 242 244 245 247 250 254 256 257 260 263 267 270 272 273 273 274
207 211 213 213 214 216 217 216 214 212 211 210 209 210 213 216 217 218 218 217 217 219 222 223 223 222 222 225 228 228 225 225 226 227 228 228 225 222 222 224 228 231 234 236 238 240 241 243 244 246 247 249 251 254 257 259 261 265 270 274 276 276 274
207 210 214 215 214 214 216 217 216 214 213 212 211 212 214 216 217 218 218 217 217 218 220 223 224 225 225 226 228 229 226 223 223 224 226 228 226 223 224 226 229 232 235 237 239 241 242 244 246 248 249 250 250 251 254 258 261 263 266 269 273 276 276
208 211 214 216 216 215 215 216 217 216 215 214 213 213 215 217 217 218 218 218 218 218 220 222 223 226 227 228 229 231 229 225 222 222 223 226 226 224 224 227 230 233 235 237 240 242 244 246 248 250 251 252 252 252 253 256 261 263 265 266 269 272 275
210 212 214 216 218 218 216 215 215 216 216 216 214 214 216 218 218 218 219 219 218 218 219 221 223 225 228 229 229 231 231 228 225 223 222 223 225 225 226 228 231 234 236 238 240 242 244 247 250 252 254 254 254 254 254 255 258 262 265 266 267 270 273
212 214 215 217 218 220 219 217 215 214 215 216 215 215 217 218 218 218 219 218 218 218 219 221 223 225 228 230 230 231 232 230 227 225 223 223 224 226 228 230 233 235 236 238 240 243 246 249 251 253 254 255 255 255 256 256 256 259 263 265 267 268 270
214 215 217 217 218 220 221 219 216 213 214 216 217 216 218 219 219 219 220 219 218 218 219 221 223 225 227 230 232 232 233 231 229 228 227 226 226 227 229 231 233 235 237 239 242 245 248 250 251 252 254 255 256 256 256 256 256 257 259 262 265 265 266
216 217 219 220 220 221 222 222 220 216 214 216 217 217 218 220 220 220 221 220 218 218 219 220 223 224 227 230 232 234 235 235 233 232 230 229 228 228 229 231 232 235 237 240 242 245 247 249 251 252 253 254 256 257 257 257 258 258 259 261 263 263 263
219 220 222 223 223 224 224 224 223 220 217 217 217 217 218 220 220 221 221 220 218 218 218 220 222 224 227 229 232 234 235 236 237 237 235 232 231 232 233 234 235 237 239 241 242 244 247 249 252 253 253 254 256 258 260 260 260 260 262 262 262 260 259
226 225 226 226 225 225 226 226 225 224 221 220 218 217 218 220 221 221 221 220 218 218 218 219 222 224 226 229 231 233 235 235 236 237 236 233 231 234 237 238 239 240 240 242 243 245 247 249 252 254 255 256 258 260 261 262 262 262 263 262 262 260 257
228 228 228 227 226 225 225 226 227 226 225 224 221 218 218 219 221 221 221 220 218 218 218 219 221 223 225 227 230 232 234 235 235 236 235 231 230 233 237 240 242 243 243 243 243 245 247 249 252 255 257 259 260 260 260 261 261 262 262 260 261 259 253